Temperature
17 16 16 15 15 15 15 15 15 15 15 15 15 15 14 14 14 14 14 15 15 15 15 15 16 16 16 16 16 15 15 15 15 15 15 15 15 14 13 13 13 13 13
17 16 16 15 15 15 15 15 15 15 15 15 15 15 15 14 14 14 14 15 15 15 15 15 15 15 15 15 15 15 15 15 15 15 15 15 15 14 13 13 12 12 12
17 16 16 15 15 15 15 15 15 14 14 14 14 14 14 14 14 14 14 14 15 15 15 15 15 15 15 15 15 15 15 15 15 14 15 15 15 14 14 13 13 12 12
17 16 16 16 15 15 15 15 14 14 14 14 14 14 14 14 14 14 14 14 14 14 14 15 15 15 15 15 15 15 15 14 14 14 14 14 15 15 14 14 13 12 12
17 17 17 16 16 15 15 15 14 14 14 14 14 14 14 14 14 14 14 14 14 14 14 14 15 15 15 15 15 15 14 14 14 13 13 14 14 15 15 15 14 12 12
17 17 17 16 16 15 15 15 15 15 14 14 14 14 14 14 14 14 14 14 14 14 14 14 14 15 15 15 15 15 14 14 14 13 13 14 15 15 15 15 14 13 12
17 17 17 16 16 16 15 15 15 15 14 14 14 14 14 14 14 14 14 14 14 14 14 14 14 15 15 15 15 15 14 14 14 14 14 14 15 15 15 15 14 14 13
17 17 16 16 16 16 15 15 15 14 14 14 14 14 14 14 14 14 14 14 14 14 14 14 14 14 15 15 15 15 15 15 14 14 14 14 15 15 15 14 14 13 12
17 16 16 16 15 15 15 15 14 14 14 14 14 14 14 14 14 14 14 13 13 13 14 14 14 14 15 15 15 15 15 15 15 14 14 14 14 14 14 14 13 13 12
16 16 16 15 15 15 15 14 14 14 14 13 13 13 13 14 14 13 13 13 13 13 13 14 14 14 14 14 14 14 14 14 14 14 14 14 13 13 14 14 13 13 13
14 14 14 15 15 15 14 14 14 13 13 13 13 13 13 13 13 13 13 13 13 13 13 13 14 14 14 14 14 14 14 14 13 13 13 13 13 13 13 14 13 13 13
13 13 13 13 13 14 14 14 13 13 13 12 13 13 13 13 13 12 12 12 12 12 13 13 13 13 13 13 13 13 13 13 13 13 13 13 13 13 13 13 13 13 12
12 12 12 12 12 12 12 12 12 12 12 12 12 12 12 12 12 12 12 12 12 12 12 12 12 12 12 12 12 12 12 12 12 12 13 13 13 12 12 12 12 12 11
11 11 11 11 11 11 11 11 12 12 12 12 12 12 12 12 12 12 12 12 12 12 12 12 12 12 12 12 12 12 12 12 12 12 12 12 12 11 12 12 12 12 11
11 11 11 10 10 11 11 11 11 11 11 12 12 11 11 12 12 12 12 12 12 12 11 12 12 12 12 12 12 12 11 12 12 12 12 11 11 11 11 11 11 11 11
11 11 11 10 10 10 10 11 11 11 11 11 11 11 11 11 11 11 12 11 11 11 11 11 11 11 11 11 11 11 11 11 11 11 11 11 11 11 11 11 11 11 11
11 11 11 10 10 10 10 10 10 11 10 10 11 11 11 11 11 11 12 11 11 11 11 11 11 10 10 10 11 11 11 11 11 11 10 10 10 10 10 10 10 10 10
11 11 11 11 10 10 10 10 10 10 10 10 10 10 10 11 11 11 11 11 11 11 11 10 10 10 10 10 10 10 10 10 10 10 10 10 10 10 10 10 10 10 10
11 11 11 11 10 10 10 10 10 10 10 10 10 10 10 10 10 10 10 10 10 10 10 9 9 9 9 9 9 10 10 10 10 10 10 10 10 10 10 10 10 10 10
11 11 11 11 11 10 10 10 10 10 10 10 10 10 10 10 10 10 10 10 10 10 9 9 9 9 9 9 9 9 9 10 10 10 10 10 10 10 9 10 10 10 10
11 11 11 11 10 10 10 10 10 10 10 10 9 9 9 9 9 9 9 9 9 9 9 9 9 9 9 9 9 9 9 9 9 9 9 9 9 9 9 9 9 9 9
11 11 11 10 10 10 10 10 10 10 10 10 9 9 9 9 9 9 9 9 9 9 9 9 9 9 9 9 9 9 9 9 9 9 9 9 9 9 9 9 9 9 9
11 10 10 10 10 10 10 10 10 10 10 10 10 9 9 9 9 9 9 9 9 9 9 9 9 9 9 9 9 9 9 9 9 9 9 9 9 9 9 9 9 9 9
10 10 10 10 10 10 10 10 10 10 10 10 10 10 10 10 9 9 9 9 9 9 9 9 9 9 9 9 9 9 9 9 9 9 9 9 9 9 9 9 9 9 8
10 10 10 10 10 10 10 10 10 10 10 10 10 10 10 10 10 9 9 9 9 9 9 9 9 9 9 9 9 9 9 9 9 9 9 9 9 9 9 8 8 8 8
10 10 10 10 10 10 10 10 10 10 10 10 10 10 9 9 9 9 9 9 9 9 9 9 9 9 9 9 9 9 9 9 9 8 8 8 8 8 8 8 8 7 7
Wind_Speed
7 7 6 7 7 7 7 7 7 7 7 8 8 7 7 5 5 4 4 4 5 6 6 8 9 8 7 8 7 6 6 5 5 3 2 3 4 5 5 6 7 7 6
7 7 7 7 7 7 7 7 7 7 6 6 7 7 7 6 6 6 6 6 7 7 8 8 9 7 9 7 8 9 8 6 5 5 3 3 3 4 4 4 4 5 5
7 7 7 7 8 8 8 7 7 7 6 6 6 7 6 6 6 6 6 7 7 8 8 9 9 9 10 8 9 9 8 7 4 5 5 2 2 3 3 3 3 3 4
7 8 8 9 9 9 8 7 7 7 7 7 6 6 6 6 5 5 6 6 7 8 8 9 9 10 11 11 10 10 8 8 5 6 5 4 3 4 4 3 2 1 2
7 8 9 8 7 7 7 7 7 7 7 6 6 5 5 5 6 6 6 7 7 7 8 9 10 13 15 12 10 10 11 9 8 7 6 5 5 5 6 4 4 2 0
8 8 7 7 7 8 7 7 7 7 6 6 6 6 5 4 6 9 8 6 6 7 8 8 9 12 15 18 18 17 17 14 12 9 7 8 10 7 6 5 5 4 3
8 7 7 7 8 8 7 7 7 7 6 6 6 6 6 5 6 7 9 6 7 7 8 8 7 8 13 10 14 16 18 20 19 14 11 10 11 13 12 9 7 5 4
7 7 7 7 8 7 7 8 7 6 6 6 6 6 5 5 7 7 7 6 6 7 7 8 8 7 8 10 9 10 11 13 15 13 12 11 9 11 13 11 9 6 4
6 7 7 8 8 7 8 8 7 6 6 6 6 7 6 6 6 6 5 3 4 5 5 6 7 6 7 10 9 9 9 8 11 12 9 9 13 18 17 10 10 6 3
3 4 5 6 8 8 8 6 5 6 6 6 6 6 6 5 5 5 5 3 3 3 3 3 6 5 6 10 7 7 7 6 6 8 7 9 10 17 23 15 12 10 4
2 1 1 3 6 6 6 6 6 6 6 6 6 4 4 5 4 5 6 4 4 3 3 2 2 3 5 7 7 5 5 5 5 6 6 6 7 9 12 12 11 9 8
4 4 3 1 1 4 5 5 6 7 7 6 5 3 2 3 3 5 6 7 6 4 4 3 2 2 3 4 5 4 4 5 4 5 6 7 7 8 9 10 12 10 8
5 5 4 4 3 3 4 5 5 5 5 4 4 3 2 2 3 5 6 7 8 4 2 3 2 2 2 2 3 4 4 4 4 5 6 6 6 6 7 7 8 9 6
4 4 4 4 4 4 3 3 4 4 5 4 4 3 3 2 3 2 2 3 5 4 3 4 5 5 3 3 2 1 2 4 4 4 4 3 4 5 6 6 6 7 5
2 3 3 4 4 4 4 3 2 2 3 4 4 4 4 4 5 7 5 4 5 5 5 3 2 2 1 0 0 1 1 2 3 3 4 4 5 6 5 6 6 7 7
1 1 2 2 3 4 5 5 9 6 4 3 3 3 3 4 4 5 8 7 9 11 5 3 2 2 2 2 2 2 2 3 3 4 4 5 6 7 7 6 6 7 8
2 2 1 2 2 3 3 4 4 6 9 10 8 5 4 4 3 3 6 8 10 10 3 3 3 3 3 3 3 3 3 3 3 3 5 5 6 6 6 7 8 7 7
3 2 3 2 2 2 2 3 3 3 2 3 6 8 8 9 9 9 10 8 5 3 2 2 2 3 3 3 4 4 4 3 3 4 4 4 5 6 6 8 8 7 6
3 3 3 3 2 2 2 3 3 3 3 2 2 4 7 8 9 8 5 3 3 2 2 2 2 3 3 4 4 4 4 4 4 4 4 4 4 4 5 6 6 8 6
3 4 4 3 3 3 2 3 3 3 3 3 2 2 2 2 2 2 2 2 1 0 1 2 3 3 4 4 4 4 4 4 4 4 4 4 4 4 5 6 6 6 5
3 3 5 4 3 3 3 3 3 3 3 3 2 2 3 2 2 1 0 0 1 1 2 2 3 3 4 3 4 4 5 4 4 4 4 4 4 4 4 5 5 5 5
4 3 3 3 3 3 3 3 3 4 4 4 2 2 4 2 1 0 1 1 2 2 3 3 3 3 3 4 4 4 5 5 5 5 5 5 4 4 4 4 5 5 5
4 4 3 3 3 4 4 3 4 4 3 3 3 3 2 1 0 1 1 1 2 2 2 2 2 2 3 3 3 4 5 5 5 5 5 5 5 5 5 6 6 6 6
4 4 4 4 4 4 4 4 3 3 3 3 3 2 2 1 1 1 1 1 1 1 1 1 2 3 4 3 4 5 6 6 6 5 7 6 6 5 5 5 6 6 6
5 4 4 4 4 4 4 4 3 3 3 3 2 2 2 1 2 2 2 2 2 2 2 2 2 2 4 4 4 4 6 7 7 6 5 5 6 6 6 6 5 6 6
5 5 4 4 4 4 4 4 3 3 3 3 3 2 2 2 2 2 2 2 2 3 3 3 5 5 6 6 7 7 6 6 6 7 6 4 5 6 6 6 7 6 6
Wind_Direction
193 189 188 190 187 182 184 186 178 176 173 171 166 161 155 158 164 174 203 209 219 227 221 217 223 206 203 204 198 192 185 168 172 157 126 133 145 142 113 96 83 65 54
190 186 190 188 183 187 193 192 184 183 182 176 165 160 159 165 176 185 203 215 221 232 229 221 226 210 206 200 196 198 195 178 156 163 158 141 141 145 129 110 88 73 55
181 185 189 189 191 196 196 189 185 182 179 177 169 171 173 178 188 198 202 213 219 227 225 222 222 203 206 201 198 199 194 186 155 151 155 134 128 142 128 101 84 49 59
182 189 197 201 200 200 194 186 184 182 179 181 180 181 176 180 192 202 205 212 220 227 225 222 215 206 208 202 201 198 186 176 161 151 150 145 136 143 148 146 139 79 48
187 198 209 206 199 193 189 186 181 181 186 183 176 183 183 185 199 204 211 217 221 228 228 224 218 214 212 202 199 193 184 182 173 166 161 161 165 169 189 163 153 134 29
197 210 207 196 194 195 192 183 180 181 182 180 183 186 190 198 203 208 208 214 219 227 234 231 223 222 220 212 210 200 191 186 186 180 176 186 193 183 159 162 143 148 211
206 214 204 196 199 201 190 181 186 188 184 188 189 187 194 209 221 226 223 215 218 225 232 232 228 221 215 208 213 208 205 202 194 186 188 192 187 186 173 170 173 166 186
209 216 209 201 205 197 189 192 189 182 186 189 189 191 198 224 233 239 240 222 227 235 233 228 226 227 208 197 193 199 205 209 205 201 203 201 188 176 179 179 163 126 94
220 222 214 205 206 197 199 199 189 181 184 185 185 188 199 231 245 246 226 200 236 252 249 235 223 218 206 188 183 195 205 214 213 207 196 180 175 172 165 147 152 157 172
262 244 221 204 204 207 206 193 181 183 186 178 181 190 199 222 245 249 211 186 231 257 266 249 224 203 184 175 174 181 204 209 186 190 179 171 171 175 175 175 172 175 162
357 343 212 200 203 202 190 178 175 174 170 171 176 189 202 221 250 265 218 184 206 228 246 256 243 200 187 179 171 182 199 175 173 178 176 171 170 178 184 185 182 178 176
50 53 52 79 174 172 168 170 166 163 165 168 168 183 218 239 247 265 242 206 191 196 222 228 234 213 188 189 185 195 184 158 161 176 188 194 194 192 191 188 188 186 184
51 45 40 47 54 107 148 157 157 161 161 168 173 190 229 255 268 268 254 216 195 186 205 205 200 203 188 175 197 201 172 160 171 194 208 210 200 183 168 165 168 168 155
50 36 34 43 48 61 93 138 156 166 161 164 176 202 231 258 255 246 226 181 166 137 105 100 91 91 86 93 95 138 156 172 182 201 212 204 171 170 172 165 165 165 160
49 32 35 43 59 66 67 66 126 171 177 172 190 192 203 233 240 213 185 171 155 143 123 98 89 92 98 96 127 206 207 199 207 200 201 198 194 191 180 167 161 165 179
92 44 45 60 76 88 93 79 57 62 88 130 164 179 214 240 270 228 199 176 155 149 131 140 160 180 205 223 235 242 236 235 232 223 216 211 208 203 190 177 174 179 186
145 137 107 100 106 112 113 113 99 60 57 60 62 76 77 62 64 113 146 146 149 148 129 149 177 199 216 226 235 242 248 251 242 236 231 220 211 204 192 187 186 184 183
139 136 130 123 123 126 131 129 128 124 94 57 47 58 68 72 79 95 110 109 124 135 135 169 197 208 216 224 231 238 250 255 249 245 235 218 203 195 190 187 188 186 177
142 131 122 118 116 119 123 126 127 128 121 109 96 70 73 76 80 89 88 86 124 162 189 212 222 223 227 230 232 235 239 242 240 238 232 213 195 184 187 185 183 178 166
149 150 134 123 114 109 112 123 131 137 137 132 130 122 104 80 78 78 64 76 99 163 226 238 241 236 233 230 227 224 229 234 234 231 228 214 201 193 191 185 180 176 179
140 132 130 119 117 118 115 117 125 131 137 138 143 158 150 117 117 124 150 237 243 247 246 247 247 246 239 229 222 223 227 233 228 224 220 212 202 200 196 188 182 177 172
140 136 135 134 131 122 116 114 117 121 132 136 133 139 154 127 119 132 279 283 268 252 246 243 248 247 239 231 225 224 229 235 230 221 217 208 202 201 192 187 182 176 175
139 135 128 122 122 121 109 102 107 113 120 128 131 127 141 138 78 12 323 302 292 281 269 254 261 269 263 248 237 231 234 236 229 215 212 209 204 201 196 197 193 184 185
139 136 131 122 115 116 113 106 102 105 111 116 120 122 127 115 35 8 352 340 335 321 308 287 274 278 281 267 255 249 249 251 238 221 211 209 206 202 199 201 199 197 192
134 133 131 128 123 120 117 111 106 106 106 107 108 102 93 78 49 26 18 24 26 14 4 353 330 317 316 312 302 283 275 267 253 236 216 209 208 204 201 203 202 198 196
135 132 128 123 121 121 121 118 114 112 104 97 94 89 83 71 52 36 29 34 36 30 25 19 18 20 11 358 350 342 325 296 269 246 224 207 207 208 201 205 205 204 204
Height
1476 1478 1479 1481 1482 1484 1486 1488 1490 1492 1494 1496 1497 1499 1501 1504 1507 1510 1513 1516 1519 1521 1523 1526 1528 1530 1532 1534 1536 1538 1540 1543 1544 1546 1548 1549 1549 1550 1550 1551 1551 1551 1551
1474 1476 1477 1479 1480 1482 1484 1486 1488 1491 1492 1494 1496 1497 1499 1501 1504 1507 1510 1512 1515 1517 1519 1521 1523 1525 1527 1529 1531 1533 1536 1538 1540 1542 1544 1545 1546 1547 1548 1548 1549 1549 1549
1472 1473 1475 1476 1478 1480 1482 1484 1486 1488 1490 1492 1493 1495 1497 1499 1502 1504 1507 1509 1511 1513 1515 1517 1518 1520 1522 1524 1526 1528 1530 1533 1535 1537 1539 1542 1543 1544 1545 1546 1547 1547 1548
1469 1471 1472 1473 1475 1477 1479 1481 1483 1486 1487 1489 1491 1493 1495 1497 1499 1501 1504 1505 1507 1509 1511 1512 1514 1515 1517 1519 1520 1522 1525 1527 1529 1532 1535 1537 1539 1540 1542 1543 1544 1545 1545
1467 1468 1470 1471 1473 1474 1476 1478 1480 1482 1485 1487 1489 1491 1493 1495 1496 1498 1500 1502 1503 1505 1506 1508 1509 1510 1512 1513 1515 1517 1519 1521 1523 1526 1529 1532 1534 1536 1537 1539 1540 1542 1543
1464 1466 1468 1469 1470 1472 1473 1475 1477 1480 1482 1484 1486 1488 1490 1492 1494 1495 1496 1498 1499 1500 1501 1503 1504 1505 1507 1509 1510 1512 1514 1515 1517 1520 1523 1525 1528 1531 1534 1536 1537 1538 1539
1461 1463 1464 1466 1467 1469 1471 1472 1475 1477 1479 1481 1483 1485 1487 1489 1490 1491 1492 1493 1494 1495 1496 1497 1498 1500 1502 1504 1506 1508 1509 1511 1513 1516 1518 1521 1524 1527 1530 1533 1534 1535 1536
1457 1459 1460 1462 1464 1466 1467 1469 1471 1473 1475 1478 1480 1482 1484 1485 1486 1487 1488 1488 1489 1490 1491 1492 1493 1495 1497 1499 1501 1503 1505 1506 1508 1510 1513 1517 1521 1525 1527 1529 1531 1532 1534
1452 1454 1455 1457 1459 1461 1463 1465 1467 1469 1471 1474 1476 1478 1480 1482 1483 1483 1484 1484 1484 1485 1486 1487 1488 1490 1492 1495 1497 1499 1501 1503 1505 1507 1509 1513 1516 1519 1521 1524 1525 1527 1528
1449 1449 1450 1452 1454 1455 1458 1460 1462 1464 1467 1470 1472 1474 1476 1478 1479 1479 1480 1480 1481 1481 1482 1483 1485 1486 1488 1490 1493 1495 1497 1499 1501 1503 1505 1508 1511 1513 1516 1519 1521 1523 1524
1447 1447 1447 1448 1449 1451 1453 1455 1457 1459 1462 1465 1468 1471 1472 1474 1475 1476 1476 1477 1478 1478 1479 1480 1482 1483 1485 1487 1489 1492 1494 1496 1498 1499 1501 1504 1506 1508 1511 1514 1516 1519 1521
1446 1446 1445 1445 1446 1447 1449 1451 1453 1456 1459 1462 1465 1467 1469 1470 1472 1472 1473 1474 1475 1476 1477 1478 1480 1481 1483 1484 1486 1489 1491 1493 1495 1496 1498 1499 1502 1504 1506 1509 1512 1515 1517
1447 1446 1445 1445 1445 1445 1447 1448 1450 1453 1456 1459 1461 1463 1465 1467 1468 1470 1471 1472 1473 1474 1475 1477 1478 1479 1481 1482 1484 1486 1487 1489 1491 1493 1494 1496 1498 1500 1503 1505 1507 1510 1512
1447 1446 1446 1445 1445 1445 1446 1448 1449 1451 1454 1456 1458 1461 1462 1464 1466 1468 1469 1471 1472 1473 1474 1475 1477 1478 1479 1480 1482 1483 1484 1486 1487 1489 1491 1492 1494 1496 1498 1500 1502 1504 1506
1448 1447 1446 1445 1445 1445 1446 1447 1449 1451 1453 1455 1457 1459 1460 1462 1464 1465 1467 1469 1470 1472 1473 1474 1475 1477 1478 1478 1479 1480 1481 1482 1483 1484 1486 1487 1489 1490 1492 1494 1496 1498 1501
1448 1447 1446 1446 1446 1447 1447 1448 1450 1451 1453 1455 1456 1457 1459 1460 1461 1463 1464 1466 1468 1470 1471 1472 1473 1474 1475 1476 1476 1477 1478 1478 1479 1480 1481 1482 1483 1484 1486 1487 1489 1491 1494
1448 1447 1447 1447 1447 1448 1449 1450 1451 1452 1453 1455 1456 1457 1458 1458 1459 1461 1462 1464 1466 1467 1468 1469 1470 1471 1472 1473 1473 1474 1474 1475 1475 1476 1476 1477 1478 1478 1479 1481 1482 1485 1488
1449 1448 1448 1448 1448 1449 1450 1450 1451 1452 1453 1454 1455 1456 1457 1458 1459 1460 1461 1463 1464 1465 1466 1467 1468 1468 1469 1469 1470 1470 1470 1471 1471 1471 1472 1472 1473 1473 1473 1474 1476 1479 1481
1449 1448 1448 1448 1449 1449 1450 1451 1452 1452 1453 1454 1455 1456 1457 1458 1459 1460 1460 1461 1462 1463 1464 1464 1465 1465 1466 1466 1467 1467 1467 1467 1467 1468 1468 1469 1469 1469 1470 1471 1473 1474 1477
1449 1449 1449 1449 1449 1450 1451 1451 1452 1453 1453 1454 1455 1456 1457 1458 1458 1459 1459 1460 1461 1461 1461 1462 1462 1463 1463 1464 1464 1464 1464 1464 1464 1465 1465 1465 1466 1467 1467 1469 1470 1471 1473
1448 1449 1449 1450 1450 1451 1452 1452 1453 1454 1454 1455 1456 1456 1457 1458 1458 1459 1459 1459 1460 1460 1460 1460 1461 1461 1461 1461 1462 1462 1462 1462 1462 1462 1462 1462 1462 1463 1464 1466 1467 1469 1470
1448 1449 1450 1450 1451 1452 1453 1453 1454 1455 1455 1456 1457 1457 1458 1459 1459 1459 1460 1460 1460 1460 1460 1460 1459 1459 1459 1459 1459 1459 1458 1458 1458 1459 1459 1459 1459 1460 1461 1462 1463 1465 1466
1447 1448 1449 1450 1451 1452 1453 1454 1455 1455 1456 1457 1458 1459 1459 1460 1460 1460 1460 1460 1460 1460 1459 1459 1458 1458 1457 1457 1456 1456 1455 1455 1455 1455 1455 1455 1456 1456 1457 1458 1459 1460 1462
1447 1448 1449 1450 1451 1452 1453 1454 1455 1456 1457 1458 1459 1460 1460 1461 1461 1461 1461 1461 1460 1460 1459 1458 1457 1457 1456 1455 1454 1453 1452 1451 1451 1451 1451 1451 1452 1452 1453 1453 1454 1455 1457
1447 1448 1449 1450 1452 1453 1454 1455 1456 1457 1458 1459 1460 1461 1461 1462 1462 1462 1462 1461 1461 1460 1459 1458 1457 1456 1454 1453 1452 1451 1450 1449 1448 1448 1447 1447 1447 1448 1448 1448 1449 1450 1450
1446 1448 1449 1451 1452 1454 1455 1456 1457 1458 1459 1460 1461 1461 1462 1462 1462 1462 1462 1461 1461 1460 1459 1457 1456 1455 1453 1452 1451 1449 1448 1447 1445 1444 1444 1443 1443 1443 1443 1443 1444 1444 1445